Flag for U.S.A. Weather past 2 weeks in Des Moines, Iowa, U.S.A.

35 °F

Light rain. Mostly cloudy.

Feels Like: 25 °F
Forecast: 31 / 41 °F
Wind: 17 mph from North

Location: Des Moines International Airport

Current Time: Nov 26, 2015 at 5:22:31 PM

Latest Report: Nov 26, 2015 at 3:54 PM

Visibility: 7 mi

Pressure: 30.21 "Hg

Humidity: 88%

Dew point: 32 °F

Location of Des MoinesLocation

Historic Weather in Des Moines — Graph


Des Moines temperature yesterday

Maximum temperature yesterday: 58 °F (at 12:54 PM)
Minimum temperature yesterday: 48 °F (at 12:54 AM)
Average temperature yesterday: 53 °F

Past Weeks' High & Low Weather Summary

High65 °F (Nov 14, 2:54 PM)93% (Nov 16, 8:54 PM)30.37 "Hg (Nov 16, 8:54 PM)
Low16 °F (Nov 21, 10:54 PM)21% (Nov 19, 2:54 PM)29.20 "Hg (Nov 11, 6:54 PM)
Average44 °F66%29.97 "Hg
* Reported Nov 11 3:54 PM — Nov 26 3:54 PM, Des Moines, Weather by CustomWeather, © 2015

Note: Actual official high and low records may vary slightly from our data, if they occured in-between our weather recording intervals... More about our weather records


Des Moines weather history for previous 24 hours

Time TempWeatherWind HumidityBarometerVisibility
3:54 PM
Thu, Nov 26
35 °FLight rain. Mostly cloudy.17 mph88%30.21 "Hg7 mi
2:54 PM37 °FLight rain. Mostly cloudy.13 mph86%30.19 "Hg7 mi
1:54 PM37 °FRain. Fog.18 mph86%30.19 "Hg5 mi
12:54 PM38 °FLight rain. Fog.13 mph86%30.16 "Hg3 mi
11:54 AM38 °FRain. Fog.15 mph90%30.16 "Hg1 mi
10:57 AM39 °FRain. Fog.13 mph89%30.14 "Hg1 mi
9:54 AM40 °FLight rain. Fog.10 mph93%30.14 "Hg2 mi
8:54 AM41 °FDrizzle. Fog.10 mph89%30.11 "Hg1 mi
7:54 AM42 °FDrizzle. Fog.8 mph89%30.09 "Hg1 mi
6:54 AM42 °FDrizzle. Fog.8 mph92%30.10 "Hg2 mi
5:54 AM43 °FDrizzle. Fog.7 mph89%30.08 "Hg2 mi
4:54 AM44 °FLight rain. Fog.9 mph89%30.08 "Hg2 mi
3:54 AM47 °FDrizzle. Fog.8 mph90%30.07 "Hg2 mi
2:54 AM48 °FDrizzle. Fog.6 mph93%30.06 "Hg2 mi
1:54 AM50 °FFog.5 mph89%30.05 "Hg2 mi
12:54 AM53 °FFog.3 mph89%30.04 "Hg5 mi
11:54 PM
Wed, Nov 25
53 °FLight rain. Mostly cloudy.3 mph89%30.04 "Hg8 mi
10:54 PM54 °FLight rain. Overcast.7 mph86%30.03 "Hg7 mi
9:54 PM55 °FOvercast.7 mph80%30.02 "Hg10 mi
8:54 PM55 °FMostly cloudy.7 mph77%30.01 "Hg10 mi
7:54 PM54 °FDrizzle. Overcast.5 mph77%30.01 "Hg10 mi
6:54 PM54 °FOvercast.5 mph72%30.00 "Hg10 mi
5:54 PM54 °FOvercast.6 mph69%29.99 "Hg10 mi
Weather by CustomWeather, © 2015

See weather overviewHow to use our weather pages